sat.trackr.live / text

‹ back to catalog

CHUANGXIN 1 (CX-1)

NORAD 28058 · 2003-049B

PAYLOAD ACTIVE UNKNOWN

§ Identity

Operator
Country
PRC
Launch date
2003-10-21
Launch site
TAISC
Launch vehicle
Mass (kg)
RCS (m²)
0.53

External: N2YO · Heavens-Above · Gunter

§ Orbital elements

Epoch: 2026-09-12T03:16:59.737728Z

Period
99.40 min
Inclination
98.4957°
Eccentricity
0.0011307
Mean motion
14.48619334 rev/d
Perigee alt
722.1 km
Apogee alt
738.2 km
Semi-major
7,108.3 km
B*
4.5458e-5
RAAN
154.7905°
Arg perigee
280.6355°
Mean anomaly
79.3564°
Rev number
20,886

§ Raw data

CHUANGXIN 1 (CX-1)1 28058U 03049B   26255.13680252  .00000126  00000+0  45458-4 0  99942 28058  98.4957 154.7905 0011307 280.6355  79.3564 14.48619334208860

JSON: /api/v1/satellites/28058 · /tle

For live sub-satellite position, see the globe view (requires WebGL).

§ Visibility from observer

Set your observer location to see the next 7 days of passes ≥ 10°. The values pass through the URL so the page stays shareable.

No JS? Fill the form by hand. The geolocation button needs JavaScript.